Find Kosmos-1420

NORAD ID: 13648 Int'l Des: 1982-109 Owner: GUKOS Country: SU operational
LEOCIRCULAR

Live Position

Loading 3D Globe...

About Kosmos-1420

Description loading...

Upcoming Passes

Passes for default location (London). Set your location on the main map for personalized predictions.

Altitude History

Loading altitude history...

Two-Line Element Set

1 13648U 82109A 26109.83043693 .00000071 00000-0 34432-4 0 9994
2 13648 73.9922 289.3206 0019006 51.1039 309.1805 14.34780536271211
Epoch: Apr 19, 2026 • Age: 8 hours

Current Status

Altitude 792.3 km
Velocity 7.45 km/s
Sub-Earth Point -14.09°S, 148.29°W
Launch Date Nov 11, 1982
Age 43.4 years
Type other

Technical Details

Classification Payload
Mass 800.00 kg
Dry Mass 800.00 kg
Total Mass 800.00 kg
Length 3.00 m
Diameter 2.00 m
Span 3.00 m
Shape Cyl
Manufacturer NPOPM
Bus Type Strela-2M
Phase Status In Orbit
Owner/State GUKOS/SU

Most Searched